Location: Medlow Airstrip Trail, Medlow Bath NSW 2780, Australia
(33.6682°S, 150.3233°E)
Time: 22:28:13
(UTC+10:00)

Hubble Space Telescope - Visible Passes

Search period start: 03 August 2020 00:00
Search period end: 13 August 2020 00:00
Orbit: 536 x 540 km, 28.5° (Epoch: 02 August)

Date Brightness Start Highest point End Pass type
(mag) Time Alt. Az. Time Alt. Az. Time Alt. Az.
03 Aug 3.1 19:32:38 10° NW 19:34:06 18° NNW 19:34:06 18° NNW visible
04 Aug 2.5 19:21:41 10° NW 19:24:07 24° NNW 19:24:07 24° NNW visible
05 Aug 2.0 19:10:47 10° NW 19:14:07 30° N 19:14:07 30° N visible
06 Aug 1.7 18:59:56 10° WNW 19:03:43 34° N 19:04:05 33° NNE visible
07 Aug 1.7 18:49:07 10° WNW 18:52:58 37° N 18:54:03 31° NE visible
08 Aug 1.7 18:38:20 10° WNW 18:42:13 39° N 18:44:01 25° NE visible
08 Aug 4.1 20:19:19 10° WNW 20:19:21 10° WNW 20:19:21 10° WNW visible
09 Aug 1.7 18:27:34 10° WNW 18:31:29 40° N 18:34:00 19° ENE visible
09 Aug 3.7 20:08:39 10° WNW 20:09:20 14° WNW 20:09:20 14° WNW visible
10 Aug 1.7 18:16:50 10° WNW 18:20:45 40° N 18:24:00 14° ENE visible
10 Aug 3.4 19:58:01 10° WNW 19:59:20 17° WNW 19:59:20 17° WNW visible
11 Aug 1.8 18:06:06 10° WNW 18:10:00 39° N 18:13:54 10° ENE visible
11 Aug 3.1 19:47:25 10° WNW 19:49:23 20° NW 19:49:23 20° NW visible
12 Aug 1.9 17:55:24 10° WNW 17:59:16 38° N 18:03:07 10° ENE visible
12 Aug 2.9 19:36:53 10° WNW 19:39:29 20° NNW 19:39:29 20° NNW visible
